Sanford, ME

11:25 PM EST on December 03, 2016 (GMT -0500)
Sanford Regional

Weather History for KSFM - November, 2011

Change the Weather History Date:

Friday, November 4, 2011

  Actual Average Record
Temperature  
Mean Temperature 42 °F -  
Max Temperature 48 °F 49 °F 64 °F (2008)
Min Temperature 37 °F 30 °F 12 °F (2002)
Degree Days  
Heating Degree Days 22    
Moisture  
Dew Point 27 °F    
Average Humidity 53    
Maximum Humidity 76    
Minimum Humidity 34    
Precipitation  
Precipitation 0.00 in - - ()
Sea Level Pressure  
Sea Level Pressure 29.98 in    
Wind  
Wind Speed 8 mph (NNW)    
Max Wind Speed 18 mph    
Max Gust Speed 29 mph    
Visibility 10 miles    
Events      
Averages and records for this station are not official NWS values.
T = Trace of Precipitation, MM = Missing Value Source: NWS Daily Summary

Daily Weather History Graph

Daily Weather History Graph

Search for Another Location

Airport or City:

Trip Planner

Search our weather history database for the weather conditions in past years. The results will help you decide how hot, cold, wet, or windy it might be!

Date:

Astronomy

Nov. 04, 2011 Rise Set
Actual Time 7:21 AM EDT 5:30 PM EDT
Civil Twilight 6:51 AM EDT 6:00 PM EDT
Nautical Twilight 6:17 AM EDT 6:34 PM EDT
Astronomical Twilight 5:44 AM EDT 7:07 PM EDT
Moon 2:29 PM EDT 1:20 AM EDT
Length of Visible Light 11h 08m
Length of Day
10h 09m
Waxing Gibbous, 69% of the Moon is Illuminated
Nov 4
Waxing Gibbous
Nov 10
Full
Nov 18
Last Quarter
Nov 25
New
Dec 2
First Quarter

Hourly Weather History & Observations

Time (EDT) Temp. Windchill Dew Point Humidity Pressure Visibility Wind Dir Wind Speed Gust Speed Precip Events Conditions
1:15 AM 46.4 °F 43.5 °F 39.2 °F 76% 29.86 in 10.0 mi WNW 5.8 mph - N/A   Mostly Cloudy
1:35 AM 48.2 °F - 39.2 °F 71% 29.86 in 10.0 mi WNW 8.1 mph - N/A   Overcast
1:55 AM 48.2 °F - 39.2 °F 71% 29.86 in 10.0 mi NNW 3.5 mph - N/A   Overcast
2:15 AM 48.2 °F - 39.2 °F 71% 29.86 in 10.0 mi NNW 5.8 mph - N/A   Overcast
2:35 AM 48.2 °F - 39.2 °F 71% 29.86 in 10.0 mi NW 3.5 mph - N/A   Overcast
3:15 AM 48.2 °F - 39.2 °F 71% 29.87 in 10.0 mi NW 3.5 mph - N/A   Mostly Cloudy
3:35 AM 48.2 °F - 37.4 °F 66% 29.87 in 10.0 mi NNW 3.5 mph - N/A   Mostly Cloudy
4:15 AM 46.4 °F 41.9 °F 37.4 °F 71% 29.89 in 10.0 mi North 9.2 mph - N/A   Overcast
4:35 AM 46.4 °F 42.9 °F 35.6 °F 66% 29.89 in 10.0 mi North 6.9 mph - N/A   Mostly Cloudy
5:15 AM 44.6 °F 41.4 °F 35.6 °F 71% 29.90 in 10.0 mi North 5.8 mph - N/A   Overcast
5:35 AM 44.6 °F 41.4 °F 35.6 °F 71% 29.92 in 10.0 mi NNW 5.8 mph - N/A   Mostly Cloudy
5:55 AM 42.8 °F 39.3 °F 35.6 °F 76% 29.92 in 10.0 mi NNW 5.8 mph - N/A   Mostly Cloudy
6:15 AM 44.6 °F 39.2 °F 33.8 °F 66% 29.92 in 10.0 mi NNW 10.4 mph - N/A   Mostly Cloudy
6:35 AM 42.8 °F 37.0 °F 30.2 °F 61% 29.93 in 10.0 mi NNW 10.4 mph - N/A   Partly Cloudy
6:55 AM 42.8 °F 38.0 °F 28.4 °F 57% 29.94 in 10.0 mi NNW 8.1 mph - N/A   Clear
7:15 AM 41.0 °F 36.4 °F 26.6 °F 57% 29.95 in 10.0 mi NW 6.9 mph - N/A   Clear
7:35 AM 41.0 °F 35.8 °F 26.6 °F 57% 29.95 in 10.0 mi NW 8.1 mph - N/A   Clear
7:55 AM 41.0 °F 37.1 °F 26.6 °F 57% 29.96 in 10.0 mi NNW 5.8 mph - N/A   Clear
8:15 AM 41.0 °F 35.8 °F 28.4 °F 61% 29.96 in 10.0 mi NNW 8.1 mph - N/A   Clear
8:35 AM 41.0 °F 38.0 °F 26.6 °F 57% 29.98 in 10.0 mi NW 4.6 mph - N/A   Clear
8:55 AM 41.0 °F 38.0 °F 26.6 °F 57% 29.98 in 10.0 mi NW 4.6 mph - N/A   Clear
9:15 AM 42.8 °F 38.0 °F 24.8 °F 49% 29.98 in 10.0 mi NNW 8.1 mph - N/A   Clear
9:35 AM 42.8 °F 38.6 °F 26.6 °F 53% 29.99 in 10.0 mi NNW 6.9 mph - N/A   Clear
9:55 AM 44.6 °F 40.2 °F 26.6 °F 49% 29.99 in 10.0 mi NW 8.1 mph - N/A   Clear
10:15 AM 44.6 °F 38.4 °F 24.8 °F 46% 29.98 in 10.0 mi North 12.7 mph - N/A   Clear
10:35 AM 44.6 °F 38.8 °F 24.8 °F 46% 29.99 in 10.0 mi NNW 11.5 mph 23.0 mph N/A   Clear
10:55 AM 44.6 °F 38.1 °F 24.8 °F 46% 29.98 in 10.0 mi NNW 13.8 mph 17.3 mph N/A   Clear
11:15 AM 46.4 °F 41.1 °F 24.8 °F 43% 29.99 in 10.0 mi NNW 11.5 mph 20.7 mph N/A   Clear
11:35 AM 46.4 °F 41.1 °F 24.8 °F 43% 29.98 in 10.0 mi NNW 11.5 mph 18.4 mph N/A   Clear
11:55 AM 46.4 °F 39.8 °F 23.0 °F 40% 29.99 in 10.0 mi NNW 16.1 mph 21.9 mph N/A   Clear
12:15 PM 46.4 °F 41.5 °F 23.0 °F 40% 29.99 in 10.0 mi NNW 10.4 mph 23.0 mph N/A   Clear
12:35 PM 48.2 °F - 23.0 °F 37% 29.98 in 10.0 mi NNW 12.7 mph 18.4 mph N/A   Clear
12:55 PM 48.2 °F - 24.8 °F 40% 29.98 in 10.0 mi NW 12.7 mph 21.9 mph N/A   Scattered Clouds
1:15 PM 48.2 °F - 23.0 °F 37% 29.98 in 10.0 mi NNW 9.2 mph - N/A   Mostly Cloudy
1:35 PM 48.2 °F - 23.0 °F 37% 29.98 in 10.0 mi North 13.8 mph 19.6 mph N/A   Scattered Clouds
2:15 PM 48.2 °F - 21.2 °F 34% 29.99 in 10.0 mi NW 15.0 mph 27.6 mph N/A   Partly Cloudy
2:35 PM 48.2 °F - 21.2 °F 34% 29.99 in 10.0 mi NNW 16.1 mph 24.2 mph N/A   Partly Cloudy
2:55 PM 46.4 °F 40.4 °F 21.2 °F 37% 30.00 in 10.0 mi NW 13.8 mph 26.5 mph N/A   Partly Cloudy
3:35 PM 46.4 °F 40.4 °F 21.2 °F 37% 30.02 in 10.0 mi NNW 13.8 mph 28.8 mph N/A   Partly Cloudy
3:55 PM 46.4 °F 39.8 °F 21.2 °F 37% 30.03 in 10.0 mi NNW 16.1 mph 28.8 mph N/A   Clear
4:15 PM 46.4 °F 39.2 °F 21.2 °F 37% 30.04 in 10.0 mi NNW 18.4 mph 25.3 mph N/A   Partly Cloudy
4:35 PM 44.6 °F 37.4 °F 21.2 °F 39% 30.05 in 10.0 mi NNW 16.1 mph 23.0 mph N/A   Clear
4:55 PM 44.6 °F 37.8 °F 21.2 °F 39% 30.07 in 10.0 mi NNW 15.0 mph 23.0 mph N/A   Clear
5:55 PM 41.0 °F 35.2 °F 19.4 °F 42% 30.10 in 10.0 mi NNW 9.2 mph 18.4 mph N/A   Partly Cloudy
6:15 PM 41.0 °F 37.1 °F 21.2 °F 45% 30.12 in 10.0 mi NNW 5.8 mph - N/A   Clear
6:55 PM 39.2 °F 32.5 °F 21.2 °F 49% 30.14 in 10.0 mi NNW 10.4 mph 16.1 mph N/A   Clear
7:15 PM 39.2 °F 33.6 °F 24.8 °F 56% 30.15 in 10.0 mi NNW 8.1 mph - N/A   Clear
7:35 PM 37.4 °F 32.8 °F 24.8 °F 60% 30.16 in 10.0 mi North 5.8 mph - N/A   Clear
7:55 PM 37.4 °F 32.1 °F 21.2 °F 52% 30.16 in 10.0 mi NNW 6.9 mph - N/A   Clear
8:15 PM 37.4 °F 31.4 °F 21.2 °F 52% 30.17 in 10.0 mi NNW 8.1 mph - N/A   Clear
8:35 PM 37.4 °F 32.8 °F 21.2 °F 52% 30.18 in 10.0 mi NNW 5.8 mph - N/A   Clear
8:55 PM 35.6 °F 32.8 °F 23.0 °F 60% 30.18 in 10.0 mi NW 3.5 mph - N/A   Clear
9:15 PM 33.8 °F 28.6 °F 21.2 °F 60% 30.21 in 10.0 mi NW 5.8 mph - N/A   Clear
9:35 PM 35.6 °F 28.6 °F 21.2 °F 56% 30.21 in 10.0 mi North 9.2 mph - N/A   Clear
9:55 PM 37.4 °F 30.8 °F 21.2 °F 52% 30.21 in 10.0 mi North 9.2 mph - N/A   Clear
10:15 PM 35.6 °F 28.6 °F 23.0 °F 60% 30.21 in 10.0 mi North 9.2 mph 16.1 mph N/A   Clear
10:35 PM 35.6 °F 29.2 °F 23.0 °F 60% 30.21 in 10.0 mi NNW 8.1 mph - N/A   Clear
10:55 PM 35.6 °F 30.7 °F 21.2 °F 56% 30.22 in 10.0 mi NNW 5.8 mph - N/A   Clear
11:15 PM 33.8 °F 30.8 °F 21.2 °F 60% 30.22 in 10.0 mi West 3.5 mph - N/A   Clear
11:35 PM 33.8 °F 28.6 °F 21.2 °F 60% 30.22 in 10.0 mi WNW 5.8 mph - N/A   Clear
11:55 PM 33.8 °F 29.6 °F 19.4 °F 56% 30.22 in 10.0 mi WNW 4.6 mph - N/A   Clear